Overview Statistics Trail Chart Weather Telemetry Raw packets
 

This is the latest recevied weather packets stored in our database for station/object KC5DAQ-26. If no packets are shown the sender has not sent any weather packets the latest 10 day(s).

<< 390 391 392 393 394 395 396 >>
Time Temp. Humidity Pressure Rain* Wind** Luminosity Snow
1788122942 35.56° C 54% 1016.9 hPa 0 mm - 199 W/m² -
1788122883 35.56° C 55% 1016.9 hPa 0 mm - 258 W/m² -
1788122825 35.56° C 53% 1017 hPa 0 mm - 186 W/m² -
1788122762 35.56° C 52% 1017 hPa 0 mm - 176 W/m² -
1788122703 35.56° C 54% 1017 hPa 0 mm - 183 W/m² -
1788122643 35.56° C 52% 1017 hPa 0 mm - 491 W/m² -
1788122582 36.11° C 51% 1017 hPa 0 mm - 181 W/m² -
1788122522 36.11° C 51% 1017 hPa 0 mm - 164 W/m² -
1788122463 36.11° C 50% 1017.1 hPa 0 mm - 155 W/m² -
1788122404 36.67° C 53% 1017.1 hPa 0 mm - 155 W/m² -
1788122342 36.67° C 54% 1017 hPa 0 mm - 860 W/m² -
1788122284 36.67° C 50% 1017.1 hPa 0 mm - 860 W/m² -
1788122224 36.67° C 50% 1017.1 hPa 0 mm - 860 W/m² -
1788122162 36.67° C 50% 1017.1 hPa 0 mm - 862 W/m² -
1788122102 36.67° C 50% 1017.2 hPa 0 mm - 869 W/m² -
1788122042 36.67° C 49% 1017.2 hPa 0 mm - 876 W/m² -
1788121983 36.67° C 50% 1017.2 hPa 0 mm - 881 W/m² -
1788121922 36.67° C 49% 1017.2 hPa 0 mm - 888 W/m² -
1788121863 36.67° C 51% 1017.2 hPa 0 mm - 890 W/m² -
1788121804 36.67° C 50% 1017.2 hPa 0 mm - 888 W/m² -
1788121743 36.67° C 53% 1017.2 hPa 0 mm - 888 W/m² -
1788121682 36.67° C 54% 1017.2 hPa 0 mm - 890 W/m² -
1788121625 36.11° C 52% 1017.3 hPa 0 mm - 895 W/m² -
1788121563 36.11° C 51% 1017.2 hPa 0 mm - 895 W/m² -
1788121503 36.11° C 52% 1017.2 hPa 0 mm - 900 W/m² -

* Rain latest hour (hover to see other rain measurements)
** Current wind speed in m/s (hover to see current wind gust speed)